Pensacola, FL

3:32 PM CDT on May 24, 2018 (GMT -0500)
Pensacola Regional

Weather History for KPNS - November, 2011

Change the Weather History Date:

Sunday, November 27, 2011

  Actual Average Record
Temperature  
Mean Temperature 61 °F 58 °F  
Max Temperature 71 °F 67 °F 84 °F (1973)
Min Temperature 50 °F 48 °F 28 °F (1903)
Degree Days  
Heating Degree Days 4 8  
Month to date heating degree days 109 146  
Since 1 July heating degree days 168 184  
Cooling Degree Days 0 1  
Month to date cooling degree days 50 43  
Year to date cooling degree days 2901 2593  
Growing Degree Days 11 (Base 50)    
Moisture  
Dew Point 62 °F    
Average Humidity 86    
Maximum Humidity 93    
Minimum Humidity 79    
Precipitation  
Precipitation 0.47 in 0.15 in 2.95 in (2005)
Month to date precipitation 1.74 4.24  
Year to date precipitation 40.94 60.23  
Snow  
Snow 0.00 in 0.00 in 0.00 in (2002)
Month to date snowfall 0.0 0.0  
Since 1 July snowfall 0.0 0.0  
Snow Depth 0.00 in    
Sea Level Pressure  
Sea Level Pressure 29.92 in    
Wind  
Wind Speed 11 mph (SW)    
Max Wind Speed 21 mph    
Max Gust Speed 30 mph    
Visibility 7 miles    
Events Rain    
T = Trace of Precipitation, MM = Missing Value Source: NWS Daily Summary

Daily Weather History Graph

Daily Weather History Graph

Search for Another Location

Airport or City:

Astronomy

Nov. 27, 2011 Rise Set
Actual Time 6:24 AM CST 4:47 PM CST
Civil Twilight 5:58 AM CST 5:13 PM CST
Nautical Twilight 5:29 AM CST 5:43 PM CST
Astronomical Twilight 5:00 AM CST 6:12 PM CST
Moon 8:47 AM CST (11/27) 7:26 PM CST (11/27)
Length of Visible Light 11h 15m
Length of Day
10h 23m
Waxing Crescent, 8% of the Moon is Illuminated
Nov 27
Waxing Crescent
Dec 2
First Quarter
Dec 10
Full
Dec 17
Last Quarter
Dec 24
New

Hourly Weather History & Observations

Time (CST) Temp. Dew Point Humidity Pressure Visibility Wind Dir Wind Speed Gust Speed Precip Events Conditions
12:53 AM 68.0 °F 64.0 °F 87% 30.00 in 10.0 mi SSE 16.1 mph - 0.00 in Rain Light Rain
1:53 AM 69.1 °F 63.0 °F 81% 29.98 in 10.0 mi SSE 18.4 mph 26.5 mph 0.00 in Rain Light Rain
2:53 AM 66.9 °F 64.9 °F 93% 29.99 in 3.0 mi SSE 18.4 mph 28.8 mph 0.03 in Rain Rain
3:53 AM 68.0 °F 64.9 °F 90% 29.97 in 10.0 mi South 12.7 mph 21.9 mph 0.04 in Rain Light Rain
4:53 AM 68.0 °F 64.0 °F 87% 29.96 in 10.0 mi SSE 10.4 mph - 0.00 in   Overcast
5:53 AM 69.1 °F 64.0 °F 84% 29.95 in 10.0 mi SSE 15.0 mph 21.9 mph N/A   Overcast
6:53 AM 69.1 °F 64.9 °F 87% 29.95 in 10.0 mi South 11.5 mph - 0.02 in   Overcast
7:53 AM 70.0 °F 64.0 °F 81% 29.95 in 10.0 mi South 9.2 mph - 0.00 in   Overcast
8:53 AM 71.6 °F 64.4 °F 78% 29.96 in 10.0 mi South 5.8 mph - N/A   Overcast
9:53 AM 70.0 °F 64.9 °F 84% 29.98 in 3.0 mi South 10.4 mph - 0.01 in Rain Light Rain
10:27 AM 69.8 °F 66.2 °F 88% 29.97 in 2.0 mi SW 5.8 mph - 0.02 in Rain Light Rain
10:53 AM 70.0 °F 66.0 °F 87% 29.96 in 2.0 mi South 9.2 mph - 0.04 in Rain Light Rain
11:29 AM 69.8 °F 66.2 °F 88% 29.93 in 1.0 mi SSW 11.5 mph - 0.05 in Rain Rain
11:40 AM 69.8 °F 66.2 °F 88% 29.93 in 1.0 mi South 6.9 mph - 0.07 in Rain Rain
11:53 AM 69.1 °F 66.9 °F 93% 29.93 in 1.0 mi South 10.4 mph - 0.09 in Rain Rain
12:00 PM 69.8 °F 66.2 °F 88% 29.92 in 2.5 mi SSW 10.4 mph - 0.01 in Rain Light Rain
12:53 PM 68.0 °F 66.0 °F 93% 29.91 in 2.5 mi SSW 12.7 mph - 0.06 in Rain Rain
1:00 PM 68.0 °F 64.4 °F 88% 29.90 in 2.5 mi SSW 8.1 mph - 0.02 in Rain Light Rain
1:02 PM 68.0 °F 64.4 °F 88% 29.90 in 3.0 mi SSW 11.5 mph - 0.02 in Rain Light Rain
1:53 PM 69.1 °F 66.0 °F 90% 29.88 in 9.0 mi SW 4.6 mph - 0.02 in Rain Light Rain
2:46 PM 69.8 °F 66.2 °F 88% 29.85 in 2.5 mi West 4.6 mph - 0.04 in Rain Rain
2:53 PM 68.0 °F 66.0 °F 93% 29.86 in 1.5 mi WSW 4.6 mph - 0.07 in Rain Heavy Rain
3:00 PM 68.0 °F 66.2 °F 94% 29.86 in 3.0 mi WSW 4.6 mph - 0.01 in Rain Light Rain
3:53 PM 66.0 °F 64.0 °F 93% 29.86 in 10.0 mi NW 5.8 mph - 0.01 in Rain Light Rain
4:53 PM 64.0 °F 62.1 °F 93% 29.86 in 10.0 mi WNW 12.7 mph 17.3 mph 0.00 in   Overcast
5:25 PM 62.6 °F 60.8 °F 94% 29.88 in 10.0 mi WNW 9.2 mph - N/A   Mostly Cloudy
5:53 PM 63.0 °F 60.1 °F 90% 29.89 in 10.0 mi West 9.2 mph - 0.00 in Rain Light Rain
6:53 PM 62.1 °F 60.1 °F 93% 29.90 in 10.0 mi WNW 3.5 mph - 0.00 in Rain Light Rain
7:12 PM 62.6 °F 60.8 °F 94% 29.91 in 10.0 mi WSW 5.8 mph - 0.00 in Rain Light Rain
7:53 PM 62.1 °F 60.1 °F 93% 29.90 in 10.0 mi West 4.6 mph - 0.00 in Rain Light Rain
8:00 PM 62.6 °F 60.8 °F 94% 29.90 in 10.0 mi WSW 4.6 mph - 0.00 in Rain Light Rain
8:53 PM 55.9 °F 54.0 °F 93% 29.93 in 10.0 mi WNW 16.1 mph 21.9 mph 0.05 in   Mostly Cloudy
9:53 PM 54.0 °F 51.1 °F 90% 29.92 in 10.0 mi NW 13.8 mph - 0.00 in   Overcast
10:53 PM 53.1 °F 50.0 °F 89% 29.91 in 10.0 mi NW 12.7 mph 19.6 mph 0.01 in Rain Light Rain
11:00 PM 51.8 °F 50.0 °F 94% 29.91 in 10.0 mi WNW 10.4 mph - 0.00 in Rain Light Rain
11:53 PM 50.0 °F 46.9 °F 89% 29.93 in 10.0 mi NW 13.8 mph 23.0 mph 0.01 in Rain Light Rain